sat.trackr.live / text

‹ back to catalog

COSMOS 2605

NORAD 67679 · 2026-023F

PAYLOAD ACTIVE UNKNOWN

§ Identity

Operator
Country
CIS
Launch date
2026-02-05
Launch site
PLMSC
Launch vehicle
Mass (kg)
RCS (m²)

External: N2YO · Heavens-Above · Gunter

§ Orbital elements

Epoch: 2026-05-25T03:15:08.095104Z

Period
94.43 min
Inclination
96.6237°
Eccentricity
0.0019484
Mean motion
15.24877118 rev/d
Perigee alt
477.8 km
Apogee alt
504.5 km
Semi-major
6,869.3 km
B*
4.0682e-4
RAAN
211.7582°
Arg perigee
204.2568°
Mean anomaly
155.7757°
Rev number
1,648

§ Raw data

COSMOS 26051 67679U 26023F   26145.13551036  .00010112  00000+0  40682-3 0  99972 67679  96.6237 211.7582 0019484 204.2568 155.7757 15.24877118 16489

JSON: /api/v1/satellites/67679 · /tle

For live sub-satellite position, see the globe view (requires WebGL).

§ Visibility from observer

Set your observer location to see the next 7 days of passes ≥ 10°. The values pass through the URL so the page stays shareable.

No JS? Fill the form by hand. The geolocation button needs JavaScript.